Regional Weather Roundup
Issued by NWS

Home | Current Version | Previous Version | Text Only | Print | Product List | Glossary Off
Versions: 1 2 3 4 5 6 7 8 9 10 11 12 13 14 15 16 17 18 19 20 21 22 23 24 25 26 27 28 29 30 31 32 33 34 35 36 37 38 39 40 41 42 43 44 45 46 47 48 49 50

000
ASUS43 KLMK 271110
RWRKY
KENTUCKY REGIONAL WEATHER ROUNDUP
NATIONAL WEATHER SERVICE LOUISVILLE KY
600 AM EST SAT DEC 27 2014

NOTE "FAIR" INDICATES FEW OR NO CLOUDS BELOW 12,000 FEET
WITH NO SIGNIFICANT WEATHER AND/OR OBSTRUCTIONS TO VISIBILITY.

KYZ001>023-026-027-061>063-070>075-271200-
WESTERN AND SOUTH CENTRAL KENTUCKY

CITY           SKY/WX    TMP DP  RH WIND       PRES   REMARKS
PADUCAH        CLOUDY    46  45  96 CALM      30.14S FOG
HENDERSON      CLOUDY    45  41  87 S6        30.15R
OWENSBORO      LGT RAIN  46  42  86 S7        30.16S
HOPKINSVILLE   NOT AVBL
BOWLING GREEN  CLOUDY    48  37  65 SE7       30.18F
GLASGOW        CLOUDY    48  36  63 S5        30.19S
$$

KYZ024-025-028>034-038-045-046-053-271200-
NORTH CENTRAL KENTUCKY

CITY           SKY/WX    TMP DP  RH WIND       PRES   REMARKS
LOUISVILLE/SDF CLOUDY    48  37  65 SE3       30.18R
LOUISVILLE/LOU CLOUDY    49  36  61 CALM      30.19R
FORT KNOX      NOT AVBL
$$

KYZ035>037-039>044-047>052-055>060-089>105-271200-
NORTHEAST KENTUCKY

CITY           SKY/WX    TMP DP  RH WIND       PRES   REMARKS
LEXINGTON      CLOUDY    45  35  68 SE6       30.20S
COVINGTON      CLOUDY    42  32  67 S7        30.18S
FRANKFORT      CLOUDY    46  35  65 CALM      30.18F
$$

KYZ054-064>069-076>088-106>120-271200-
SOUTHEAST KENTUCKY

CITY           SKY/WX    TMP DP  RH WIND       PRES   REMARKS
JACKSON        MOCLDY    45  25  45 SE5       30.24R
LONDON         CLOUDY    43  31  62 SE3       30.23S
SOMERSET       CLOUDY    45  32  61 CALM      30.24S
MIDDLESBORO    CLOUDY    42  36  79 CALM      30.27S
MONTICELLO     CLOUDY    45  40  82 CALM      30.24S
$$



USA.gov is the U.S. government's official web portal to all federal, state and local government web resources and services.